DECAYED

COSMOS 886 DEB, 9821 (Decayed)

Orbit data source: Space-Track

COSMOS 886 DEB, 9821 was space debris in LEO originally from a launch on Mon, 27 Dec 1976 UTC launched from the Tyuratam Missile And Space Complex (TTMTR). Debris objects in space refer to the collection of defunct objects orbiting the Earth. Examples of debris include non-operational satellites, rocket bodies, and fragments generated from explosions, collisions, or faulty payload assembly.

Loading next visibility...
Identifier
9821, 1976-126AH
Orbit
Decayed
Country
Flag of CISCIS
Related business
Manufacturer
Unknown
Mission
Decayed spacecraft
Bus & Motor
Unknown
Mass
Unknown
Launch date (UTC)
1976-12-27 (49 years ago)
Launch vehicle
Unknown
Launch site
Tyuratam Missile And Space Complex (TTMTR)
Object type
Payload
Rocket body
Debris
Shape & HBR
Unknown shape, 0.2 m
Radar Cross Section
Medium (>0.1 m² and <1 m²)

Expand to show TLE details & history
Last TLE update: 8 months ago

TLE from 8 months ago
0 COSMOS 886 DEB
1  9821U 76126AH  25302.47899729  .05388280  90487-1  80361-2 0  9992
2  9821  65.6998  78.5929 0003304 275.5021  84.5782 16.10977493431073
Epoch: 2025-10-29T11:29Z
TLE epoch observation values (Epoch: 2025-10-29T11:29:45.365Z)
Latitude
-0.00004°
Longitude
-131.89769°
Altitude
246.152 km
Speed
7.76 km/s
True Right ascension
05h 14m 22s
True Declination
0° 00' 00"
Sunlit
Object was in full shadow at epoch
Visualization orbit readout
Latitude
Unknown
Longitude
Unknown
Altitude
Unknown
Speed
Unknown
Apparent Right ascension
Unknown
Apparent Declination
Unknown
Sunlit
N/A
Visualization observer readout
Local Sidereal Time
08:05:06
Azimuth
Unknown
Elevation
Unknown
Doppler factor
Unknown
Orbital elements
Apogee altitude
244.719 km
Perigee altitude
240.344 km
Semi-major axis
6,620.669 km
Eccentricity
0.00033
Inclination
65.6998°
RAAN
78.5929°
Arg. of periapsis
275.5021°
True anomaly
84.61589°
Mean anomaly
84.5782°
Eccentric anomaly
84.59705°
Mean motion
4.02894 °/min
Orbital period
89.35 mins
BSTAR
0.0080361
Loading maneuver chart data...
Computing Atmospheric mass density...
Loading historical data...
Loading historical data...
Loading historical data...
Loading historical data...
Loading historical data...
Loading historical data...
Loading historical data...

Documentation

Showing up to 5 results
|